When you browse on this site, cookies collect data to enhance your experience and personalize the content and advertising you see.
Visit our Privacy Policy to learn more. By continuing to use the site, you agree to this use of cookies and data.
  • In Czech Republic
  • List of Countries
  • For 7 days
  • Water Temperature
  • Satellite Maps
  • Weather Map
  • Weather Widgets
  • user-avatar
    Login

    Hourly Weather Eger

    Today, 16 January, Wednesday

    Time Temperature Precipitation Wind Pressure Humidity
    00:00 -1°C° 0 mm 7 mps 740 mmHg 79%
    01:00 +1°C° 0 mm 3 mps 740 mmHg 83%
    02:00 0°C° 0 mm 4 mps 740 mmHg 82%
    03:00 -1°C° 0 mm 6 mps 740 mmHg 81%
    04:00 0°C° 0 mm 7 mps 740 mmHg 80%
    05:00 0°C° 0 mm 7 mps 740 mmHg 80%
    06:00 0°C° 0 mm 7 mps 740 mmHg 80%
    07:00 +1°C° 0 mm 5 mps 740 mmHg 82%
    08:00 +1°C° 0 mm 5 mps 741 mmHg 81%
    09:00 +2°C° 0 mm 6 mps 741 mmHg 79%
    10:00 +2°C° 0 mm 6 mps 742 mmHg 78%
    11:00 +3°C° 0 mm 5 mps 742 mmHg 78%
    12:00 +3°C° 0 mm 5 mps 742 mmHg 77%
    13:00 +5°C° 0 mm 4 mps 742 mmHg 77%
    14:00 +4°C° 0 mm 4 mps 743 mmHg 81%
    15:00 +3°C° 0 mm 4 mps 743 mmHg 84%
    16:00 +2°C° 0 mm 3 mps 743 mmHg 88%
    17:00 +1°C° 0 mm 3 mps 743 mmHg 89%
    18:00 +1°C° 0 mm 3 mps 743 mmHg 90%
    19:00 0°C° 0 mm 3 mps 743 mmHg 91%
    20:00 +1°C° 0 mm 2 mps 743 mmHg 90%
    21:00 +1°C° 0 mm 2 mps 743 mmHg 90%
    22:00 +1°C° 0 mm 2 mps 743 mmHg 89%
    23:00 +1°C° 0 mm 2 mps 743 mmHg 89%

    Tomorrow, 17 January, Thursday

    Time Temperature Precipitation Wind Pressure Humidity
    00:00 -1°C° 0 mm 2 mps 743 mmHg 89%
    01:00 -1°C° 0 mm 2 mps 742 mmHg 88%
    02:00 -1°C° 0 mm 2 mps 742 mmHg 91%
    03:00 -1°C° 0 mm 2 mps 742 mmHg 93%
    04:00 -2°C° 0 mm 2 mps 742 mmHg 96%
    05:00 -1°C° 0 mm 2 mps 742 mmHg 96%
    06:00 -1°C° 0 mm 3 mps 742 mmHg 96%
    07:00 -1°C° 0 mm 3 mps 742 mmHg 95%
    08:00 0°C° 0 mm 3 mps 742 mmHg 94%
    09:00 +1°C° 0 mm 3 mps 742 mmHg 93%
    10:00 +1°C° 0 mm 3 mps 742 mmHg 92%
    11:00 +2°C° 0 mm 3 mps 742 mmHg 91%
    12:00 +4°C° 0 mm 2 mps 742 mmHg 90%
    13:00 +5°C° 0 mm 2 mps 742 mmHg 89%
    14:00 +4°C° 0 mm 2 mps 741 mmHg 90%
    15:00 +5°C° 0 mm 1 mps 741 mmHg 90%
    16:00 +4°C° 0 mm 1 mps 741 mmHg 91%
    17:00 +4°C° 0.1 mm 1 mps 741 mmHg 92%
    18:00 +3°C° 0.1 mm 2 mps 741 mmHg 93%
    19:00 +3°C° 0.1 mm 2 mps 741 mmHg 93%
    20:00 +3°C° 0.4 mm 2 mps 741 mmHg 93%
    21:00 +3°C° 0.4 mm 3 mps 741 mmHg 93%
    22:00 +3°C° 0.4 mm 3 mps 741 mmHg 93%
    23:00 +3°C° 0.1 mm 3 mps 741 mmHg 93%

    Day after tomorrow, 18 January, Friday

    Time Temperature Precipitation Wind Pressure Humidity
    00:00 +2°C° 0.1 mm 3 mps 741 mmHg 93%
    01:00 +3°C° 0.1 mm 2 mps 741 mmHg 94%
    02:00 +3°C° 0.2 mm 2 mps 741 mmHg 92%
    03:00 +2°C° 0.2 mm 3 mps 741 mmHg 90%
    04:00 +2°C° 0.2 mm 3 mps 742 mmHg 88%
    05:00 +2°C° 0 mm 3 mps 742 mmHg 87%
    06:00 +1°C° 0 mm 4 mps 743 mmHg 86%
    07:00 0°C° 0 mm 4 mps 743 mmHg 85%
    08:00 0°C° 0 mm 4 mps 744 mmHg 80%
    09:00 0°C° 0 mm 4 mps 745 mmHg 76%
    10:00 0°C° 0 mm 4 mps 746 mmHg 71%
    11:00 0°C° 0 mm 4 mps 746 mmHg 66%
    12:00 +1°C° 0 mm 4 mps 746 mmHg 61%
    13:00 +1°C° 0 mm 4 mps 747 mmHg 57%
    14:00 0°C° 0 mm 4 mps 747 mmHg 61%
    15:00 +1°C° 0 mm 3 mps 747 mmHg 66%
    16:00 +1°C° 0 mm 2 mps 748 mmHg 71%
    17:00 -1°C° 0 mm 2 mps 748 mmHg 73%
    18:00 +1°C° 0 mm 1 mps 749 mmHg 76%
    19:00 0°C° 0 mm 1 mps 749 mmHg 79%
    20:00 0°C° 0 mm 1 mps 749 mmHg 79%
    21:00 -1°C° 0 mm 0 mps 749 mmHg 79%
    22:00 -1°C° 0 mm 0 mps 750 mmHg 79%
    23:00 -1°C° 0 mm 0 mps 750 mmHg 79%

    19 January, Saturday

    Time Temperature Precipitation Wind Pressure Humidity
    00:00 -1°C° 0 mm 0 mps 750 mmHg 79%
    01:00 0°C° 0 mm 1 mps 750 mmHg 79%
    02:00 0°C° 0 mm 1 mps 749 mmHg 80%
    03:00 0°C° 0 mm 1 mps 749 mmHg 80%
    04:00 0°C° 0 mm 1 mps 749 mmHg 80%
    05:00 0°C° 0 mm 1 mps 749 mmHg 80%
    06:00 0°C° 0 mm 1 mps 749 mmHg 80%
    07:00 0°C° 0 mm 1 mps 749 mmHg 80%
    08:00 0°C° 0 mm 1 mps 749 mmHg 77%
    09:00 +1°C° 0 mm 1 mps 749 mmHg 75%
    10:00 +1°C° 0 mm 1 mps 749 mmHg 72%
    11:00 +2°C° 0 mm 1 mps 748 mmHg 69%
    12:00 +2°C° 0 mm 1 mps 748 mmHg 67%
    13:00 +1°C° 0 mm 2 mps 747 mmHg 64%
    14:00 +1°C° 0 mm 2 mps 747 mmHg 67%
    15:00 -1°C° 0 mm 2 mps 747 mmHg 71%
    16:00 -1°C° 0 mm 2 mps 746 mmHg 74%
    17:00 -2°C° 0.3 mm 2 mps 746 mmHg 78%
    18:00 -2°C° 0.3 mm 2 mps 746 mmHg 83%
    19:00 -2°C° 0.3 mm 2 mps 746 mmHg 88%
    20:00 -3°C° 0.7 mm 2 mps 746 mmHg 89%
    21:00 -3°C° 0.7 mm 2 mps 745 mmHg 91%
    22:00 -3°C° 0.7 mm 2 mps 745 mmHg 92%
    23:00 -3°C° 0.7 mm 2 mps 745 mmHg 93%

    20 January, Sunday

    Time Temperature Precipitation Wind Pressure Humidity
    00:00 -3°C° 0.7 mm 2 mps 745 mmHg 93%
    01:00 -3°C° 0.7 mm 2 mps 744 mmHg 94%
    02:00 -3°C° 0.6 mm 2 mps 744 mmHg 94%
    03:00 -3°C° 0.6 mm 2 mps 743 mmHg 94%
    04:00 -3°C° 0.6 mm 2 mps 743 mmHg 94%
    05:00 -3°C° 0.3 mm 2 mps 743 mmHg 94%
    06:00 -3°C° 0.3 mm 2 mps 743 mmHg 94%
    07:00 -3°C° 0.3 mm 2 mps 743 mmHg 93%
    08:00 0°C° 0 mm 1 mps 743 mmHg 92%
    09:00 0°C° 0 mm 1 mps 743 mmHg 90%
    10:00 +1°C° 0 mm 1 mps 743 mmHg 89%
    11:00 +1°C° 0 mm 1 mps 743 mmHg 88%
    12:00 +2°C° 0 mm 1 mps 743 mmHg 87%
    13:00 +2°C° 0 mm 1 mps 743 mmHg 86%
    14:00 +1°C° 0 mm 0 mps 743 mmHg 87%
    15:00 0°C° 0 mm 0 mps 743 mmHg 89%
    16:00 0°C° 0 mm 0 mps 743 mmHg 91%
    17:00 -1°C° 0 mm 0 mps 743 mmHg 91%
    18:00 -1°C° 0 mm 0 mps 743 mmHg 91%
    19:00 -2°C° 0 mm 0 mps 743 mmHg 92%
    20:00 -1°C° 0 mm 1 mps 744 mmHg 92%
    21:00 -1°C° 0 mm 1 mps 744 mmHg 92%
    22:00 -1°C° 0 mm 1 mps 744 mmHg 92%
    23:00 -1°C° 0 mm 1 mps 745 mmHg 93%

    21 January, Monday

    Time Temperature Precipitation Wind Pressure Humidity
    00:00 -1°C° 0 mm 1 mps 745 mmHg 93%
    01:00 -1°C° 0 mm 1 mps 745 mmHg 93%
    02:00 -1°C° 0 mm 1 mps 745 mmHg 93%
    03:00 -1°C° 0 mm 1 mps 745 mmHg 93%
    04:00 -1°C° 0 mm 1 mps 746 mmHg 93%
    05:00 -1°C° 0 mm 1 mps 746 mmHg 93%
    06:00 -1°C° 0 mm 1 mps 747 mmHg 92%
    07:00 0°C° 0 mm 1 mps 747 mmHg 92%
    08:00 0°C° 0 mm 1 mps 747 mmHg 88%
    09:00 +1°C° 0 mm 1 mps 748 mmHg 84%
    10:00 +1°C° 0 mm 1 mps 748 mmHg 80%
    11:00 -1°C° 0 mm 2 mps 749 mmHg 75%
    12:00 +1°C° 0 mm 2 mps 749 mmHg 71%
    13:00 +1°C° 0 mm 2 mps 749 mmHg 66%
    14:00 -1°C° 0 mm 2 mps 749 mmHg 70%
    15:00 -1°C° 0 mm 2 mps 749 mmHg 74%
    16:00 -2°C° 0 mm 2 mps 750 mmHg 77%
    17:00 -3°C° 0 mm 2 mps 750 mmHg 79%
    18:00 -4°C° 0 mm 2 mps 751 mmHg 80%
    19:00 -4°C° 0 mm 2 mps 751 mmHg 82%
    20:00 -5°C° 0 mm 2 mps 752 mmHg 81%
    21:00 -5°C° 0 mm 2 mps 752 mmHg 80%
    22:00 -6°C° 0 mm 3 mps 752 mmHg 79%
    23:00 -6°C° 0 mm 3 mps 752 mmHg 78%
    Show more